Погода в Инзе

Россия / Ульяновская область     53°51′25″N   46°21′05″E
темп.,
°C
ветер,
м/с
пор.,
м/с
влажн.,
%
обл.,
%
осадки,
мм/ч
давл.,
гПа
погр.,
м
10 апреля, сб
сб1001:00−1св2795100 0.0 1027155
04:000св41192100 0.0 1027371
07:000св51295100 0.1 1027501
10:00+1св51298100 1.3 1026459
13:00+2ссв5999100 1.2 1026373
16:00+1ссв51099100 6.0 1025319
19:00+2ссв4899100 0.1 1025324
22:00+1ссв3799100 0.4 1024212
11 апреля, вс
вс1101:00+1с369992 3.0 1024174
04:00+2с4899100 3.0 1025254
07:00+2с3999100 0.0 1027267
10:00+3с4899100 0.0 1028285
13:00+4ссв4998100 0.1 1029352
16:00+5ссв3797100 0.1 1031357
19:00+4св4899100 0.0 1031255
22:00+4св4999100 0.0 1031207
12 апреля, пн
пн1201:00+4св3899100 0.0 1032182
04:00+4св4997100 0.0 1032183
07:00+5в4109694 0.0 1032214
10:00+10в478152 0.0 1032323
13:00+16вюв566138 0.0 1031668
16:00+17вюв565498 0.0 1031986
19:00+14вюв387250 0.0 1031162
22:00+10вюв348537 0.0 103246
13 апреля, вт
вт1301:00+9юв22836 0.0 103225
04:00+7юв228388 0.0 103223
07:00+6юв238244 0.0 103246
10:00+12юв47555 0.0 1031430
13:00+16ююв573917 0.0 10301108
16:00+17ююв46345 0.0 10291393
19:00+14ююв34535 0.0 102862
22:00+10ююв23645 0.0 102927
14 апреля, ср
ср1401:00+8ююв226862 0.0 102918
04:00+7юв2271100 0.0 102916
07:00+7юв2276100 0.0 102825
10:00+13юв355679 0.0 1027340
13:00+17юв564059 0.0 10261069
16:00+18ююв56325 0.0 10241399
19:00+14юв365222 0.0 1023119
22:00+10юв33615 0.0 102439